weather.gov     
National Weather Service

Regional Weather Roundup
NWS Homepage
This page is being discontinued on March 12, 2014.
The same data is available at this site. Please update your bookmarks.
Thank you, and we apologize for the inconvenience.
Please send an email to SR-SRH.Webmaster@noaa.gov with any concerns.


Current Version
Previous Version:    01  02  03  04  05  06  07  08  09  10  11  12  13  14  15  16  17  18  19  20  21  22  23  24  25  26  
[Printable]
733
ASUS44 KBMX 270810
RWRAL

ALABAMA REGIONAL WEATHER ROUNDUP
NATIONAL WEATHER SERVICE BIRMINGHAM AL
300 AM CDT WED AUG 27 2014

NOTE: "FAIR" INDICATES FEW OR NO CLOUDS BELOW 12,000 FEET
WITH NO SIGNIFICANT WEATHER AND/OR OBSTRUCTIONS TO VISIBILITY.

THE REMARK "TC" DENOTES TEMPERATURE IN DEGREES CELSIUS.

ALZ001>011-014-016>018-020-270900-
NORTH ALABAMA

CITY           SKY/WX    TMP DP  RH WIND       PRES   REMARKS
MUSCLE SHOALS  CLEAR     65  63  93 CALM      30.08S FOG
HUNTSVILLE     PTCLDY    70  65  84 CALM      30.07F
DECATUR        CLEAR     67  65  93 CALM      30.08S
HALEYVILLE     FAIR      65  65 100 CALM      30.11S
GADSDEN        CLEAR     66  63  88 CALM      30.07S
$$

ALZ012-013-022-023-030>036-040>044-270900-
WEST CENTRAL ALABAMA

CITY           SKY/WX    TMP DP  RH WIND       PRES   REMARKS
TUSCALOOSA     CLEAR     68  64  87 CALM      30.05S
$$

ALZ015-024>027-033>036-040>044-270900-
CENTRAL ALABAMA

CITY           SKY/WX    TMP DP  RH WIND       PRES   REMARKS
BIRMINGHAM     CLEAR     68  63  84 E3        30.08S
MONTGOMERY     CLEAR     70  65  84 CALM      30.03R
SHELBY CO ARPT CLEAR     67  65  93 CALM      30.06S
MAXWELL AFB    CLEAR     69  66  88 N2        30.02S
GREENVILLE     FAIR      71  62  73 CALM      30.02S
$$

ALZ019-021-028-029-037-038-045>048-270900-
EAST CENTRAL ALABAMA

CITY           SKY/WX    TMP DP  RH WIND       PRES   REMARKS
ANNISTON       CLEAR     66  64  93 E3        30.07S
ALEXANDER CITY CLEAR     68  63  83 CALM      30.06S
AUBURN         CLEAR     66  57  72 NE8       30.08S
$$

ALZ051>064-270900-
SOUTHWEST ALABAMA

CITY           SKY/WX    TMP DP  RH WIND       PRES   REMARKS
MOBILE         CLEAR     75  72  90 NE5       30.00S
BROOKLEY FIELD CLEAR     80  71  74 NE7       29.99S
EVERGREEN      CLEAR     70  67  90 CALM      30.01S
$$

ALZ049-050-065>069-270900-
SOUTHEAST ALABAMA

CITY           SKY/WX    TMP DP  RH WIND       PRES   REMARKS
DOTHAN         CLEAR     71  64  78 NE5       30.04F
OZARK          CLEAR     71  65  83 NE7       30.00F
TROY           CLEAR     67  64  90 CALM      30.03S
EUFAULA        FAIR      65  62  90 CALM      30.01S
$$




U.S. Dept. of Commerce
NOAA National Weather Service
1325 East West Highway
Silver Spring, MD 20910
E-mail: w-nws.webmaster@noaa.gov
Page last modified: May 16, 2007
NATIONAL WEATHER SERVICE: for Safety, for Work, for Fun - FOR LIFE